Location: Casteau
(50.5142°N, 4.0161°E)
Time: 02:11:43
(UTC+00:00)

S-56A Canister/Altair - Pass Details

Date: 08 August 2021
Orbit: 632 x 2500 km, 38.9° (Epoch: 16 September)

Event Time Altitude Azimuth Distance (km) Brightness Sun altitude
Rises 13:18:40 0° 238° (WSW) 4,912 12.2 51.1°
Reaches altitude 10° 13:21:42 10° 232° (SW) 4,154 12.1 50.8°
Maximum altitude 13:32:40 47° 164° (SSE) 2,802 11.4 49.7°
Drops below altitude 10° 13:46:26 10° 98° (E) 5,163 11.6 48.2°
Sets 13:50:42 0° 93° (E) 6,170 11.9 47.8°
